Location: Ettringen
(48.1054°N, 10.6545°E)
Time: 21:32:27
(UTC+00:00)

BlueWalker 3 - Pass Details

Date: 18 November 2025
Orbit: 455 x 462 km, 53.2° (Epoch: 09 December)

Event Time Altitude Azimuth Distance (km) Brightness Sun altitude
Rises 18:12:37 0° 220° (SW) 2,478 6.0 -25.9°
Reaches altitude 10° 18:14:50 10° 213° (SSW) 1,607 4.9 -26.3°
Enters shadow 18:15:40 16° 208° (SSW) 1,295 4.3 -26.4°
